TimeCST,TemperatureF,Dew PointF,Humidity,Sea Level PressureIn,VisibilityMPH,Wind Direction,Wind SpeedMPH,Gust SpeedMPH,PrecipitationIn,Events,Conditions,WindDirDegrees,DateUTC
12:15 AM,65.7,57.7,76,29.90,10.0,SE,8.1,-,N/A,,Overcast,140,2014-03-08 06:15:00
12:35 AM,65.7,58.1,77,29.90,10.0,ESE,5.8,-,N/A,,Mostly Cloudy,120,2014-03-08 06:35:00
12:50 AM,65.7,58.1,77,29.90,10.0,ESE,5.8,-,N/A,,Mostly Cloudy,120,2014-03-08 06:50:00
1:15 AM,65.7,58.3,77,29.90,10.0,ESE,4.6,-,N/A,,Overcast,120,2014-03-08 07:15:00
1:35 AM,65.7,58.5,78,29.89,10.0,ESE,3.5,-,N/A,,Overcast,110,2014-03-08 07:35:00
1:55 AM,65.3,58.3,78,29.88,10.0,ESE,3.5,-,N/A,,Overcast,120,2014-03-08 07:55:00
2:15 AM,65.1,58.6,79,29.88,10.0,ESE,3.5,-,N/A,,Overcast,110,2014-03-08 08:15:00
2:35 AM,64.9,58.6,80,29.88,10.0,ESE,3.5,-,N/A,,Overcast,110,2014-03-08 08:35:00
2:55 AM,64.9,59.0,81,29.88,10.0,East,3.5,-,N/A,,Overcast,100,2014-03-08 08:55:00
3:15 AM,65.3,59.2,81,29.87,10.0,ESE,5.8,-,N/A,,Overcast,110,2014-03-08 09:15:00
3:35 AM,65.3,59.4,81,29.87,10.0,ESE,5.8,-,N/A,,Mostly Cloudy,120,2014-03-08 09:35:00
3:55 AM,65.3,59.5,82,29.86,10.0,SE,5.8,-,N/A,,Scattered Clouds,130,2014-03-08 09:55:00
4:15 AM,66.0,59.9,81,29.87,10.0,SE,8.1,-,N/A,,Scattered Clouds,140,2014-03-08 10:15:00
4:35 AM,66.6,60.1,80,29.86,10.0,SE,8.1,-,N/A,,Mostly Cloudy,130,2014-03-08 10:35:00
4:55 AM,67.1,60.3,79,29.87,10.0,SE,8.1,-,N/A,,Overcast,130,2014-03-08 10:55:00
5:15 AM,66.6,60.4,81,29.87,10.0,SE,6.9,-,N/A,,Scattered Clouds,140,2014-03-08 11:15:00
5:35 AM,66.6,60.6,81,29.88,10.0,SE,6.9,-,N/A,,Mostly Cloudy,130,2014-03-08 11:35:00
5:55 AM,66.7,60.8,81,29.88,10.0,SE,5.8,-,N/A,,Overcast,130,2014-03-08 11:55:00
6:15 AM,66.6,60.8,82,29.89,10.0,SE,6.9,-,N/A,,Overcast,130,2014-03-08 12:15:00
6:35 AM,66.4,60.8,82,29.89,10.0,ESE,5.8,-,N/A,,Mostly Cloudy,120,2014-03-08 12:35:00
6:55 AM,65.7,60.8,84,29.89,10.0,Calm,Calm,-,N/A,,Scattered Clouds,0,2014-03-08 12:55:00
7:15 AM,65.5,60.8,85,29.90,7.0,ESE,3.5,-,N/A,,Mostly Cloudy,120,2014-03-08 13:15:00
7:35 AM,66.0,61.2,84,29.91,7.0,ESE,5.8,-,N/A,,Mostly Cloudy,120,2014-03-08 13:35:00
7:55 AM,66.6,61.3,83,29.91,7.0,SE,5.8,-,N/A,,Overcast,130,2014-03-08 13:55:00
8:15 AM,67.3,61.7,82,29.92,10.0,SE,8.1,-,N/A,,Overcast,130,2014-03-08 14:15:00
8:35 AM,68.0,62.1,81,29.93,10.0,SE,6.9,-,N/A,,Overcast,130,2014-03-08 14:35:00
8:55 AM,68.5,62.6,81,29.93,7.0,SE,6.9,-,N/A,,Overcast,130,2014-03-08 14:55:00
9:15 AM,70.0,63.5,80,29.94,10.0,SE,8.1,-,N/A,,Overcast,140,2014-03-08 15:15:00
9:35 AM,71.1,63.9,78,29.94,10.0,SE,10.4,16.1,N/A,,Overcast,130,2014-03-08 15:35:00
9:55 AM,72.7,64.4,75,29.94,10.0,SE,11.5,-,N/A,,Overcast,140,2014-03-08 15:55:00
10:15 AM,73.4,64.6,74,29.94,10.0,SSE,12.7,-,N/A,,Overcast,150,2014-03-08 16:15:00
10:35 AM,75.7,65.1,69,29.93,10.0,SSE,15.0,-,N/A,,Overcast,150,2014-03-08 16:35:00
10:55 AM,75.2,64.6,69,29.93,10.0,SSE,17.3,-,N/A,,Overcast,160,2014-03-08 16:55:00
11:15 AM,76.8,64.6,66,29.92,10.0,SSE,13.8,20.7,N/A,,Overcast,150,2014-03-08 17:15:00
11:35 AM,77.9,64.4,63,29.92,10.0,SSE,16.1,24.2,N/A,,Overcast,160,2014-03-08 17:35:00
11:55 AM,77.5,64.0,63,29.92,10.0,SSE,16.1,24.2,N/A,,Overcast,150,2014-03-08 17:55:00
12:15 PM,78.3,64.4,62,29.91,10.0,SE,10.4,-,N/A,,Overcast,130,2014-03-08 18:15:00
12:35 PM,78.4,63.7,60,29.91,10.0,SSE,9.2,-,N/A,,Overcast,150,2014-03-08 18:35:00
12:55 PM,79.2,63.0,57,29.91,10.0,SSE,12.7,16.1,N/A,,Overcast,150,2014-03-08 18:55:00
1:15 PM,79.9,63.1,56,29.91,10.0,SSE,8.1,-,N/A,,Overcast,150,2014-03-08 19:15:00
1:35 PM,79.3,64.4,60,29.90,10.0,WSW,6.9,-,N/A,,Overcast,250,2014-03-08 19:35:00
1:55 PM,78.3,64.6,63,29.90,10.0,West,6.9,-,N/A,,Overcast,270,2014-03-08 19:55:00
2:15 PM,78.4,64.6,62,29.90,10.0,West,4.6,-,N/A,,Overcast,280,2014-03-08 20:15:00
2:35 PM,78.8,64.6,62,29.90,10.0,ENE,9.2,-,N/A,,Overcast,60,2014-03-08 20:35:00
2:55 PM,75.2,66.7,75,29.90,3.0,NNE,5.8,-,0.03,,Overcast,30,2014-03-08 20:55:00
3:15 PM,73.8,67.8,82,29.90,7.0,North,8.1,-,N/A,,Overcast,10,2014-03-08 21:15:00
3:35 PM,72.5,67.5,84,29.90,10.0,North,10.4,17.3,N/A,,Overcast,360,2014-03-08 21:35:00
3:55 PM,71.6,67.3,86,29.91,10.0,North,8.1,-,N/A,,Overcast,10,2014-03-08 21:55:00
4:15 PM,71.8,67.5,86,29.91,10.0,North,6.9,-,N/A,,Overcast,10,2014-03-08 22:15:00
4:35 PM,72.0,67.1,85,29.92,10.0,Calm,Calm,-,N/A,,Overcast,0,2014-03-08 22:35:00
4:55 PM,71.6,67.5,87,29.93,1.8,North,4.6,-,0.08,,Overcast,360,2014-03-08 22:55:00
5:15 PM,71.2,66.7,86,29.93,3.0,East,3.5,-,0.04,,Overcast,100,2014-03-08 23:15:00
5:35 PM,70.9,66.4,86,29.94,7.0,ESE,8.1,-,0.05,,Overcast,120,2014-03-08 23:35:00
5:55 PM,70.9,66.2,85,29.95,10.0,ESE,9.2,-,0.05,,Overcast,120,2014-03-08 23:55:00
6:15 PM,70.7,65.8,85,29.96,10.0,ESE,8.1,-,N/A,,Overcast,120,2014-03-09 00:15:00
6:35 PM,70.0,65.5,86,29.97,10.0,East,6.9,-,N/A,,Overcast,100,2014-03-09 00:35:00
6:55 PM,70.0,65.3,85,29.98,10.0,ESE,6.9,16.1,N/A,,Overcast,110,2014-03-09 00:55:00
7:15 PM,69.8,65.3,86,29.99,10.0,ESE,8.1,-,N/A,,Overcast,110,2014-03-09 01:15:00
7:35 PM,69.8,65.3,86,29.99,10.0,ESE,8.1,-,N/A,,Overcast,110,2014-03-09 01:35:00
7:55 PM,69.4,65.3,87,30.01,10.0,ESE,5.8,-,N/A,,Overcast,120,2014-03-09 01:55:00
8:15 PM,69.1,64.9,87,30.02,10.0,ESE,4.6,-,N/A,,Overcast,110,2014-03-09 02:15:00
8:35 PM,68.9,64.9,87,30.03,10.0,East,5.8,-,N/A,,Overcast,100,2014-03-09 02:35:00
8:55 PM,68.9,64.9,87,30.03,10.0,East,6.9,-,N/A,,Overcast,100,2014-03-09 02:55:00
9:15 PM,68.9,64.9,87,30.03,10.0,ESE,5.8,-,N/A,,Overcast,110,2014-03-09 03:15:00
9:35 PM,68.9,64.9,87,30.04,10.0,ESE,6.9,-,N/A,,Overcast,110,2014-03-09 03:35:00
9:55 PM,68.7,64.9,88,30.04,10.0,Calm,Calm,-,N/A,,Overcast,0,2014-03-09 03:55:00
10:15 PM,68.5,64.8,88,30.06,10.0,Calm,Calm,-,N/A,,Overcast,0,2014-03-09 04:15:00
10:35 PM,63.7,58.6,84,30.08,7.0,North,15.0,21.9,0.01,,Overcast,360,2014-03-09 04:35:00
10:55 PM,59.0,56.5,91,30.08,1.5,North,17.3,25.3,0.21,,Overcast,350,2014-03-09 04:55:00
11:10 PM,57.2,54.9,92,30.09,0.8,North,16.1,25.3,0.25,,Overcast,350,2014-03-09 05:10:00
11:35 PM,55.4,53.4,93,30.11,2.0,North,18.4,24.2,0.49,,Overcast,350,2014-03-09 05:35:00
11:55 PM,54.9,52.9,93,30.13,2.5,North,17.3,21.9,0.58,,Overcast,350,2014-03-09 05:55:00